Location: Unspecified
(0.0000°N, 0.0000°E)
Time: 11:23:33
(UTC+00:00)

Vanguard 1 Rocket - Pass Details

Date: 28 November 2019
Orbit: 650 x 4226 km, 34.3° (Epoch: 07 December)

Event Time Altitude Azimuth Distance (km) Brightness Sun altitude
Rises 08:05:17 0° 314° (NW) 3,513 9.9 31.7°
Reaches altitude 10° 08:07:19 10° 317° (NW) 2,792 9.5 32.2°
Maximum altitude 08:14:01 68° 40° (NE) 1,580 9.3 33.7°
Drops below altitude 10° 08:27:18 10° 121° (ESE) 5,271 12.6 36.7°
Sets 08:32:43 0° 123° (ESE) 6,869 12.8 37.9°
